Flag for Cuba Weather past 2 weeks in Holguín, Cuba

Now
64 °F

Fog.


Feels Like: 64 °F
Forecast: 66 / 78 °F
Wind: 7 mph from Northeast

Location: Holguin Civ / Mil

Current Time: Jan 30, 2015 at 5:59:48 AM

Latest Report: Jan 30, 2015 at 4:50 AM


Visibility: 5 mi

Pressure: 30.04 "Hg

Humidity: 83%

Dew point: 59 °F

Location of HolguínLocation

Historic Weather in Holguín — Graph

°F

Holguín temperature yesterday

Maximum temperature yesterday: 82 °F (at 1:50 PM)
Minimum temperature yesterday: 57 °F (at 3:50 AM)
Average temperature yesterday: 70 °F

Past Weeks' High & Low Weather Summary

 TemperatureHumidityPressure
High90 °F (Jan 24, 1:52 PM)94% (Jan 15, 5:50 AM)30.12 "Hg (Jan 15, 5:50 AM)
Low57 °F (Jan 29, 3:50 AM)29% (Jan 24, 3:51 PM)29.92 "Hg (Jan 24, 2:51 PM)
Average73 °F72%30.02 "Hg
* Reported Jan 15 5:00 AM — Jan 30 4:50 AM, Holguín, Weather by CustomWeather, © 2014

Note: Actual official high and low records may vary slightly from our data, if they occured in-between our weather recording intervals... More about our weather records

Advertising

Holguín weather history for previous 24 hours

 ConditionsComfort  
Time TempWeatherWind HumidityBarometerVisibility
4:50 AM
Jan 30
64 °FFog.7 mph83%30.04 "Hg5 mi
3:53 AM66 °FClear.9 mph78%30.04 "Hg6 mi
2:50 AM66 °FClear.9 mph78%30.04 "Hg10 mi
1:50 AM66 °FClear.9 mph83%30.07 "Hg10 mi
12:52 AM66 °FClear.9 mph78%30.07 "Hg10 mi
11:51 PM
Jan 29
70 °FClear.10 mph69%30.07 "Hg10 mi
10:50 PM70 °FClear.14 mph69%30.09 "Hg10 mi
9:51 PM70 °FClear.14 mph73%30.09 "Hg10 mi
8:51 PM70 °FClear.13 mph69%30.09 "Hg10 mi
7:52 PM70 °FClear.14 mph69%30.07 "Hg6 mi
6:50 PM72 °FPassing clouds.15 mph65%30.07 "Hg6 mi
5:50 PM73 °FPassing clouds.16 mph61%30.07 "Hg6 mi
4:50 PM77 °FScattered clouds.17 mph54%30.04 "HgN/A
3:50 PM79 °FScattered clouds.18 mph51%30.04 "HgN/A
2:50 PM81 °FScattered clouds.20 mph45%30.04 "HgN/A
1:50 PM82 °FScattered clouds.15 mph35%30.04 "HgN/A
12:50 PM81 °FScattered clouds.16 mph42%30.04 "HgN/A
11:50 AM81 °FScattered clouds.16 mph42%30.07 "HgN/A
10:50 AM79 °FScattered clouds.17 mph45%30.09 "HgN/A
9:50 AM75 °FScattered clouds.14 mph57%30.12 "Hg6 mi
8:50 AM72 °FScattered clouds.5 mph65%30.09 "Hg6 mi
7:55 AM63 °FScattered clouds.1 mph83%30.09 "Hg5 mi
6:51 AM59 °FScattered clouds.3 mph88%30.07 "Hg6 mi
5:50 AM57 °FFog.2 mph88%30.07 "Hg5 mi
Weather by CustomWeather, © 2014

See weather overviewHow to use our weather pages